Location: Crescent
(42.8242°N, 73.7329°W)
Time: 04:58:24
(UTC+00:00)

Vanguard 2 Rocket - Pass Details

Date: 23 February 2026
Orbit: 553 x 3286 km, 32.9° (Epoch: 13 March)

Event Time Altitude Azimuth Distance (km) Brightness Sun altitude
Rises 16:33:35 0° 244° (WSW) 7,093 11.6 36.9°
Reaches altitude 10° 16:38:19 10° 241° (WSW) 6,186 11.5 37.1°
Maximum altitude 16:57:37 57° 170° (S) 3,399 11.5 37.5°
Drops below altitude 10° 17:12:23 10° 97° (E) 4,873 10.8 37.5°
Sets 17:15:36 0° 93° (E) 5,569 10.9 37.5°
